sat.trackr.live / text

‹ back to catalog

STARLINK-35504

NORAD 66325 · 2025-253G

PAYLOAD ACTIVE UNKNOWN

§ Identity

Operator
Country
US
Launch date
2025-11-06
Launch site
AFETR
Launch vehicle
Mass (kg)
RCS (m²)

Purposes: comms

External: N2YO · Heavens-Above · Gunter

§ Orbital elements

Epoch: 2026-09-20T11:58:21.582624Z

Period
94.27 min
Inclination
42.9975°
Eccentricity
0.0000888
Mean motion
15.27588798 rev/d
Perigee alt
482.4 km
Apogee alt
483.6 km
Semi-major
6,861.2 km
B*
5.3117e-4
RAAN
192.7061°
Arg perigee
235.8282°
Mean anomaly
124.2485°
Rev number
5,003

§ Raw data

STARLINK-355041 66325U 25253G   26263.49886091  .00014387  00000+0  53117-3 0  99952 66325  42.9975 192.7061 0000888 235.8282 124.2485 15.27588798 50034

JSON: /api/v1/satellites/66325 · /tle

For live sub-satellite position, see the globe view (requires WebGL).

§ Visibility from observer

Set your observer location to see the next 7 days of passes ≥ 10°. The values pass through the URL so the page stays shareable.

No JS? Fill the form by hand. The geolocation button needs JavaScript.